Location: Unspecified
(44.0704°N, 88.6889°W)
Time: 19:41:31
(UTC+02:00)

Transit 2A - Pass Details

Date: 26 June 2019
Orbit: 600 x 958 km, 66.7° (Epoch: 19 October)

Event Time Altitude Azimuth Distance (km) Brightness Sun altitude
Rises 10:20:37 0° 289° (WNW) 3,628 9.3 -15.0°
Reaches altitude 10° 10:26:09 10° 328° (NNW) 2,636 9.1 -14.5°
Maximum altitude 10:27:12 10° 338° (NNW) 2,593 9.2 -14.4°
Drops below altitude 10° 10:28:15 10° 348° (NNW) 2,609 9.4 -14.3°
Sets 10:33:34 0° 28° (NNE) 3,460 11.3 -13.7°
